Location: Newark
(34.3481°N, 134.0494°E)
Time: 07:27:20
(UTC+00:00)

Vanguard 3 - Pass Details

Date: 24 January 2020
Orbit: 508 x 3263 km, 33.3° (Epoch: 20 February)

Event Time Altitude Azimuth Distance (km) Brightness Sun altitude
Rises 13:19:37 0° 282° (WNW) 6,926 12.3 -60.2°
Reaches altitude 10° 13:24:45 10° 280° (W) 5,627 11.7 -61.1°
Enters shadow 13:32:34 32° 274° (W) 3,565 10.4 -62.6°
